This is the latest recevied weather packets stored in our database for station/object YO8SDE-8. If no packets are shown the sender has not sent any weather packets the latest 10 day(s).
| Time | Temp. | Humidity | Pressure | Rain* | Wind** | Luminosity | Snow |
|---|---|---|---|---|---|---|---|
| 1777563666 | 11.11° C | 33% | 1014.1 hPa | 0 mm | - | - | - |
| 1777563366 | 11.11° C | 33% | 1014.1 hPa | 0 mm | - | - | - |
| 1777563066 | 11.11° C | 33% | 1014.1 hPa | 0 mm | - | - | - |
| 1777562766 | 11.11° C | 33% | 1014.1 hPa | 0 mm | - | - | - |
| 1777562466 | 11.11° C | 33% | 1014.2 hPa | 0 mm | - | - | - |
| 1777562166 | 11.11° C | 33% | 1014.1 hPa | 0 mm | - | - | - |
| 1777561866 | 11.11° C | 33% | 1014 hPa | 0 mm | - | - | - |
| 1777561566 | 11.67° C | 32% | 1014 hPa | 0 mm | - | - | - |
| 1777561267 | 11.67° C | 32% | 1014 hPa | 0 mm | - | - | - |
| 1777560966 | 11.67° C | 31% | 1014.2 hPa | 0 mm | - | - | - |
| 1777560666 | 11.67° C | 32% | 1014.1 hPa | 0 mm | - | - | - |
| 1777560366 | 11.67° C | 31% | 1014.3 hPa | 0 mm | - | - | - |
| 1777560067 | 12.22° C | 31% | 1014.2 hPa | 0 mm | - | - | - |
| 1777559767 | 12.78° C | 31% | 1014.2 hPa | 0 mm | - | - | - |
| 1777559467 | 12.78° C | 31% | 1014.2 hPa | 0 mm | - | - | - |
| 1777559167 | 12.22° C | 30% | 1014.3 hPa | 0 mm | - | - | - |
| 1777558866 | 13.33° C | 29% | 1014.1 hPa | 0 mm | - | - | - |
| 1777558566 | 13.33° C | 29% | 1014.1 hPa | 0 mm | - | - | - |
| 1777558267 | 13.33° C | 29% | 1014.2 hPa | 0 mm | - | - | - |
| 1777557967 | 13.33° C | 29% | 1014.2 hPa | 0 mm | - | - | - |
| 1777557667 | 14.44° C | 28% | 1014.2 hPa | 0 mm | - | - | - |
| 1777557367 | 16.67° C | 26% | 1014.2 hPa | 0 mm | - | - | - |
| 1777557067 | 17.78° C | 27% | 1014.3 hPa | 0 mm | - | - | - |
| 1777556767 | 17.22° C | 27% | 1014.3 hPa | 0 mm | - | - | - |
| 1777556467 | 15.56° C | 28% | 1014.2 hPa | 0 mm | - | - | - |
* Rain latest hour (hover to see other rain measurements)
** Current wind speed in m/s (hover to see current wind gust speed)